Time,TemperatureF,DewpointF,PressureIn,WindDirection,WindDirectionDegrees,WindSpeedMPH,WindSpeedGustMPH,Humidity,HourlyPrecipIn,Conditions,Clouds,dailyrainin,SoftwareType,DateUTC
2013-04-15 00:13:00,30.0,-99.9,-100.00,North,-999,-999.0,-999.0,-999,0.00,,,0.12,,2013-04-15 04:13:00,
2013-04-15 00:43:00,29.0,-99.9,-100.00,North,-999,-999.0,-999.0,-999,0.00,,,0.10,,2013-04-15 04:43:00,
2013-04-15 00:53:00,29.0,-99.9,-100.00,North,-999,-999.0,-999.0,-999,0.00,,,0.10,,2013-04-15 04:53:00,
2013-04-15 01:03:00,29.0,-99.9,-100.00,North,-999,-999.0,-999.0,-999,0.00,,,0.10,,2013-04-15 05:03:00,
2013-04-15 01:13:00,29.0,-99.9,-100.00,North,-999,-999.0,-999.0,-999,0.00,,,0.10,,2013-04-15 05:13:00,
2013-04-15 01:43:00,28.0,-99.9,-100.00,North,-999,-999.0,-999.0,-999,0.00,,,0.10,,2013-04-15 05:43:00,
2013-04-15 01:53:00,28.0,-99.9,-100.00,North,-999,-999.0,-999.0,-999,0.00,,,0.10,,2013-04-15 05:53:00,
2013-04-15 02:03:00,28.0,-99.9,-100.00,North,-999,-999.0,-999.0,-999,0.00,,,0.10,,2013-04-15 06:03:00,
2013-04-15 02:12:00,28.0,-99.9,-100.00,North,-999,-999.0,-999.0,-999,0.00,,,0.10,,2013-04-15 06:12:00,
2013-04-15 02:43:00,27.0,-99.9,-100.00,North,-999,-999.0,-999.0,-999,0.00,,,0.10,,2013-04-15 06:43:00,
2013-04-15 02:53:00,27.0,-99.9,-100.00,North,-999,-999.0,-999.0,-999,0.00,,,0.10,,2013-04-15 06:53:00,
2013-04-15 03:43:00,26.0,-99.9,-100.00,North,-999,-999.0,-999.0,-999,0.00,,,0.10,,2013-04-15 07:43:00,
2013-04-15 03:55:00,26.0,-99.9,-100.00,North,-999,-999.0,-999.0,-999,0.00,,,0.10,,2013-04-15 07:55:00,
2013-04-15 04:03:00,26.0,-99.9,-100.00,North,-999,-999.0,-999.0,-999,0.00,,,0.10,,2013-04-15 08:03:00,
2013-04-15 04:14:00,26.0,-99.9,-100.00,North,-999,-999.0,-999.0,-999,0.00,,,0.10,,2013-04-15 08:14:00,
2013-04-15 04:43:00,26.0,-99.9,-100.00,North,-999,-999.0,-999.0,-999,0.00,,,0.10,,2013-04-15 08:43:00,
2013-04-15 04:53:00,26.0,-99.9,-100.00,North,-999,-999.0,-999.0,-999,0.00,,,0.10,,2013-04-15 08:53:00,
2013-04-15 05:03:00,26.0,-99.9,-100.00,North,-999,-999.0,-999.0,-999,0.00,,,0.10,,2013-04-15 09:03:00,
2013-04-15 05:13:00,26.0,-99.9,-100.00,North,-999,-999.0,-999.0,-999,0.00,,,0.10,,2013-04-15 09:13:00,
2013-04-15 05:43:00,24.0,-99.9,-100.00,North,-999,-999.0,-999.0,-999,0.00,,,0.10,,2013-04-15 09:43:00,
2013-04-15 05:53:00,24.0,-99.9,-100.00,North,-999,-999.0,-999.0,-999,0.00,,,0.10,,2013-04-15 09:53:00,
2013-04-15 06:03:00,24.0,-99.9,-100.00,North,-999,-999.0,-999.0,-999,0.00,,,0.10,,2013-04-15 10:03:00,
2013-04-15 06:13:00,24.0,-99.9,-100.00,North,-999,-999.0,-999.0,-999,0.00,,,0.10,,2013-04-15 10:13:00,
2013-04-15 06:42:00,24.0,-99.9,-100.00,North,-999,-999.0,-999.0,-999,0.00,,,0.10,,2013-04-15 10:42:00,
2013-04-15 06:53:00,24.0,-99.9,-100.00,North,-999,-999.0,-999.0,-999,0.00,,,0.10,,2013-04-15 10:53:00,
2013-04-15 07:04:00,24.0,-99.9,-100.00,North,-999,-999.0,-999.0,-999,0.00,,,0.10,,2013-04-15 11:04:00,
2013-04-15 07:13:00,24.0,-99.9,-100.00,North,-999,-999.0,-999.0,-999,0.00,,,0.10,,2013-04-15 11:13:00,
2013-04-15 07:15:00,28.0,-99.9,-100.00,North,-999,-999.0,-999.0,-999,0.00,,,0.07,,2013-04-15 11:15:00,
2013-04-15 07:44:00,28.0,-99.9,-100.00,North,-999,-999.0,-999.0,-999,0.00,,,0.07,,2013-04-15 11:44:00,
2013-04-15 07:55:00,28.0,-99.9,-100.00,North,-999,-999.0,-999.0,-999,0.00,,,0.07,,2013-04-15 11:55:00,
2013-04-15 08:05:00,28.0,-99.9,-100.00,North,-999,-999.0,-999.0,-999,0.00,,,0.07,,2013-04-15 12:05:00,
2013-04-15 08:44:00,36.0,-99.9,-100.00,North,-999,-999.0,-999.0,-999,0.00,,,0.06,,2013-04-15 12:44:00,
2013-04-15 08:54:00,36.0,-99.9,-100.00,North,-999,-999.0,-999.0,-999,0.00,,,0.06,,2013-04-15 12:54:00,
2013-04-15 09:07:00,36.0,-99.9,-100.00,North,-999,-999.0,-999.0,-999,0.00,,,0.06,,2013-04-15 13:07:00,
2013-04-15 09:13:00,36.0,-99.9,-100.00,North,-999,-999.0,-999.0,-999,0.00,,,0.06,,2013-04-15 13:13:00,
2013-04-15 09:55:00,40.0,-99.9,-100.00,North,-999,-999.0,-999.0,-999,0.00,,,0.05,,2013-04-15 13:55:00,
2013-04-15 10:07:00,40.0,-99.9,-100.00,North,-999,-999.0,-999.0,-999,0.00,,,0.05,,2013-04-15 14:07:00,
2013-04-15 10:14:00,40.0,-99.9,-100.00,North,-999,-999.0,-999.0,-999,0.00,,,0.05,,2013-04-15 14:14:00,
2013-04-15 10:45:00,43.0,-99.9,-100.00,North,-999,-999.0,-999.0,-999,0.00,,,0.02,,2013-04-15 14:45:00,
2013-04-15 10:55:00,43.0,-99.9,-100.00,North,-999,-999.0,-999.0,-999,0.00,,,0.02,,2013-04-15 14:55:00,
2013-04-15 11:05:00,43.0,-99.9,-100.00,North,-999,-999.0,-999.0,-999,0.00,,,0.02,,2013-04-15 15:05:00,
2013-04-15 11:14:00,43.0,-99.9,-100.00,North,-999,-999.0,-999.0,-999,0.00,,,0.02,,2013-04-15 15:14:00,
2013-04-15 11:45:00,47.0,-99.9,-100.00,North,-999,-999.0,-999.0,-999,0.00,,,0.01,,2013-04-15 15:45:00,
2013-04-15 11:56:00,47.0,-99.9,-100.00,North,-999,-999.0,-999.0,-999,0.00,,,0.01,,2013-04-15 15:56:00,
2013-04-15 12:14:00,47.0,-99.9,-100.00,North,-999,-999.0,-999.0,-999,0.00,,,0.01,,2013-04-15 16:14:00,
2013-04-15 12:15:00,48.0,-99.9,-100.00,North,-999,-999.0,-999.0,-999,0.00,,,0.01,,2013-04-15 16:15:00,
2013-04-15 12:45:00,48.0,-99.9,-100.00,North,-999,-999.0,-999.0,-999,0.00,,,0.01,,2013-04-15 16:45:00,
2013-04-15 12:55:00,48.0,-99.9,-100.00,North,-999,-999.0,-999.0,-999,0.00,,,0.01,,2013-04-15 16:55:00,
2013-04-15 13:05:00,48.0,-99.9,-100.00,North,-999,-999.0,-999.0,-999,0.00,,,0.01,,2013-04-15 17:05:00,
2013-04-15 13:44:00,51.0,-99.9,-100.00,North,-999,-999.0,-999.0,-999,0.00,,,0.01,,2013-04-15 17:44:00,
2013-04-15 13:53:00,51.0,-99.9,-100.00,North,-999,-999.0,-999.0,-999,0.00,,,0.01,,2013-04-15 17:53:00,
2013-04-15 14:04:00,51.0,-99.9,-100.00,North,-999,-999.0,-999.0,-999,0.00,,,0.01,,2013-04-15 18:04:00,
2013-04-15 14:13:00,51.0,-99.9,-100.00,North,-999,-999.0,-999.0,-999,0.00,,,0.01,,2013-04-15 18:13:00,
2013-04-15 14:42:00,52.0,-99.9,-100.00,North,-999,-999.0,-999.0,-999,0.00,,,0.00,,2013-04-15 18:42:00,
2013-04-15 14:52:00,52.0,-99.9,-100.00,North,-999,-999.0,-999.0,-999,0.00,,,0.00,,2013-04-15 18:52:00,
2013-04-15 15:03:00,52.0,-99.9,-100.00,North,-999,-999.0,-999.0,-999,0.00,,,0.00,,2013-04-15 19:03:00,
2013-04-15 15:12:00,52.0,-99.9,-100.00,North,-999,-999.0,-999.0,-999,0.00,,,0.00,,2013-04-15 19:12:00,
2013-04-15 16:00:00,52.0,-99.9,-100.00,North,-999,-999.0,-999.0,-999,0.00,,,0.00,,2013-04-15 20:00:00,
2013-04-15 16:02:00,52.0,-99.9,-100.00,North,-999,-999.0,-999.0,-999,0.00,,,0.00,,2013-04-15 20:02:00,
2013-04-15 16:12:00,52.0,-99.9,-100.00,North,-999,-999.0,-999.0,-999,0.00,,,0.00,,2013-04-15 20:12:00,
2013-04-15 16:42:00,54.0,-99.9,-100.00,North,-999,-999.0,-999.0,-999,0.00,,,0.00,,2013-04-15 20:42:00,
2013-04-15 16:52:00,54.0,-99.9,-100.00,North,-999,-999.0,-999.0,-999,0.00,,,0.00,,2013-04-15 20:52:00,
2013-04-15 17:02:00,54.0,-99.9,-100.00,North,-999,-999.0,-999.0,-999,0.00,,,0.00,,2013-04-15 21:02:00,
2013-04-15 17:12:00,54.0,-99.9,-100.00,North,-999,-999.0,-999.0,-999,0.00,,,0.00,,2013-04-15 21:12:00,
2013-04-15 17:43:00,54.0,-99.9,-100.00,North,-999,-999.0,-999.0,-999,0.00,,,0.00,,2013-04-15 21:43:00,
2013-04-15 17:53:00,54.0,-99.9,-100.00,North,-999,-999.0,-999.0,-999,0.00,,,0.00,,2013-04-15 21:53:00,
2013-04-15 18:03:00,54.0,-99.9,-100.00,North,-999,-999.0,-999.0,-999,0.00,,,0.00,,2013-04-15 22:03:00,
2013-04-15 18:13:00,54.0,-99.9,-100.00,North,-999,-999.0,-999.0,-999,0.00,,,0.00,,2013-04-15 22:13:00,
2013-04-15 18:42:00,54.0,-99.9,-100.00,North,-999,-999.0,-999.0,-999,0.00,,,0.00,,2013-04-15 22:42:00,
2013-04-15 18:52:00,54.0,-99.9,-100.00,North,-999,-999.0,-999.0,-999,0.00,,,0.00,,2013-04-15 22:52:00,
2013-04-15 19:03:00,54.0,-99.9,-100.00,North,-999,-999.0,-999.0,-999,0.00,,,0.00,,2013-04-15 23:03:00,
2013-04-15 19:12:00,54.0,-99.9,-100.00,North,-999,-999.0,-999.0,-999,0.00,,,0.00,,2013-04-15 23:12:00,
2013-04-15 19:42:00,41.0,-99.9,-100.00,North,-999,-999.0,-999.0,-999,0.00,,,0.00,,2013-04-15 23:42:00,
2013-04-15 19:52:00,41.0,-99.9,-100.00,North,-999,-999.0,-999.0,-999,0.00,,,0.00,,2013-04-15 23:52:00,
2013-04-15 20:03:00,41.0,-99.9,-100.00,North,-999,-999.0,-999.0,-999,0.00,,,0.00,,2013-04-16 00:03:00,
2013-04-15 20:12:00,41.0,-99.9,-100.00,North,-999,-999.0,-999.0,-999,0.00,,,0.00,,2013-04-16 00:12:00,
2013-04-15 20:42:00,38.0,-99.9,-100.00,North,-999,-999.0,-999.0,-999,0.00,,,0.00,,2013-04-16 00:42:00,
2013-04-15 20:52:00,38.0,-99.9,-100.00,North,-999,-999.0,-999.0,-999,0.00,,,0.00,,2013-04-16 00:52:00,
2013-04-15 21:02:00,38.0,-99.9,-100.00,North,-999,-999.0,-999.0,-999,0.00,,,0.00,,2013-04-16 01:02:00,
2013-04-15 21:12:00,38.0,-99.9,-100.00,North,-999,-999.0,-999.0,-999,0.00,,,0.00,,2013-04-16 01:12:00,
2013-04-15 21:42:00,37.0,-99.9,-100.00,North,-999,-999.0,-999.0,-999,0.00,,,0.00,,2013-04-16 01:42:00,
2013-04-15 21:52:00,37.0,-99.9,-100.00,North,-999,-999.0,-999.0,-999,0.00,,,0.00,,2013-04-16 01:52:00,
2013-04-15 22:02:00,37.0,-99.9,-100.00,North,-999,-999.0,-999.0,-999,0.00,,,0.00,,2013-04-16 02:02:00,
2013-04-15 22:12:00,37.0,-99.9,-100.00,North,-999,-999.0,-999.0,-999,0.00,,,0.00,,2013-04-16 02:12:00,
2013-04-15 22:42:00,33.0,-99.9,-100.00,North,-999,-999.0,-999.0,-999,0.00,,,0.00,,2013-04-16 02:42:00,
2013-04-15 22:52:00,33.0,-99.9,-100.00,North,-999,-999.0,-999.0,-999,0.00,,,0.00,,2013-04-16 02:52:00,
2013-04-15 23:02:00,33.0,-99.9,-100.00,North,-999,-999.0,-999.0,-999,0.00,,,0.00,,2013-04-16 03:02:00,
2013-04-15 23:12:00,33.0,-99.9,-100.00,North,-999,-999.0,-999.0,-999,0.00,,,0.00,,2013-04-16 03:12:00,
2013-04-15 23:43:00,32.0,-99.9,-100.00,North,-999,-999.0,-999.0,-999,0.00,,,0.00,,2013-04-16 03:43:00,
2013-04-15 23:53:00,32.0,-99.9,-100.00,North,-999,-999.0,-999.0,-999,0.00,,,0.00,,2013-04-16 03:53:00,